This demonstration page uses our WeatherBlox Daily Observations layout. Learn more.

Left ArrowRight Arrow

44.8408, -93.29828

Hourly Observations for September 7, 2021

Temp ( °F °C ) Dew Point ( °F °C ) Humidity (%) Winds ( mph kmh ) Pressure ( in mb ) Visibility ( mi km ) Precip ( " mm )
12:53 am 00:53 Partly Cloudy 71 21.7 60 15.6 68 68 S 9 15 29.63 1003 10 16 0.00 0.00
1:53 am 01:53 Mostly Cloudy 74 23.3 65 18.3 74 74 SW 8 13 29.60 1003 10 16 0.00 0.00
2:53 am 02:53 Mostly Cloudy 75 23.9 66 18.9 74 74 WSW 12 19 29.59 1002 10 16 0.00 0.00
3:53 am 03:53 Cloudy 74 23.3 67 19.4 79 79 WNW 5 7 29.60 1003 10 16 0.00 0.00
4:31 am 04:31 Cloudy with Thunderstorms 73 22.8 67 19.4 81 81 N 12 19 29.60 1002 10 16 0.00 0.00
4:53 am 04:53 Cloudy 71 21.7 63 17.2 76 76 NNE 9 15 29.62 1003 10 16 0.00 0.00
5:28 am 05:28 Mostly Cloudy 69 20.6 62 16.7 78 78 NNE 7 11 29.63 1003 10 16 0.00 0.00
5:53 am 05:53 Partly Cloudy 68 20 61 16.1 78 78 N 7 11 29.65 1004 10 16 0.00 0.00
6:53 am 06:53 Mostly Cloudy 67 19.4 59 15 76 76 N 9 15 29.70 1006 10 16 0.00 0.00
7:53 am 07:53 Mostly Cloudy 66 18.9 58 14.4 75 75 NNW 7 11 29.73 1007 10 16 0.00 0.00
8:53 am 08:53 Partly Cloudy 67 19.4 57 13.9 71 71 NW 10 17 29.75 1007 10 16 0.00 0.00
10:53 am 10:53 Mostly Sunny 73 22.8 54 12.2 51 51 NW 17 28 29.77 1008 10 16 0.00 0.00
11:53 am 11:53 Mostly Sunny 74 23.3 49 9.4 41 41 NW 16 26 29.78 1008 10 16 0.00 0.00
12:53 pm 12:53 Mostly Sunny 77 25 50 10 39 39 WNW 22 35 29.76 1008 10 16 0.00 0.00
1:53 pm 13:53 Mostly Sunny 78 25.6 49 9.4 36 36 WNW 17 28 29.76 1008 10 16 0.00 0.00
2:53 pm 14:53 Mostly Sunny 78 25.6 48 8.9 35 35 NW 18 30 29.75 1007 10 16 0.00 0.00
3:53 pm 15:53 Mostly Sunny 78 25.6 50 10 37 37 NW 18 30 29.75 1007 10 16 0.00 0.00
4:53 pm 16:53 Partly Cloudy 77 25 49 9.4 37 37 WNW 20 31 29.75 1008 10 16 0.00 0.00
5:53 pm 17:53 Partly Cloudy 76 24.4 47 8.3 36 36 WNW 16 26 29.77 1008 10 16 0.00 0.00
6:53 pm 18:53 Mostly Sunny 74 23.3 47 8.3 38 38 NW 13 20 29.77 1008 10 16 0.00 0.00
7:53 pm 19:53 Mostly Clear 72 22.2 47 8.3 41 41 WNW 8 13 29.78 1009 10 16 0.00 0.00
8:53 pm 20:53 Mostly Clear 70 21.1 48 8.9 46 46 W 7 11 29.79 1009 10 16 0.00 0.00
9:53 pm 21:53 Mostly Clear 67 19.4 48 8.9 51 51 WNW 9 15 29.81 1009 10 16 0.00 0.00
10:53 pm 22:53 Mostly Clear 67 19.4 46 7.8 47 47 N 5 7 29.83 1010 10 16 0.00 0.00
11:53 pm 23:53 Clear 65 18.3 48 8.9 54 54 W 6 9 29.81 1010 10 16 0.00 0.00

Powered by AerisWeather